Location: Unspecified
(0.0000°N, 0.0000°E)
Time: 03:43:59
(UTC+00:00)

N. Korean satellite - Pass Details

Date: 18 January 2017
Orbit: 463 x 519 km, 97.2° (Epoch: 18 January)

Event Time Altitude Azimuth Distance (km) Brightness Sun altitude
Rises 19:23:29 0° 192° (SSW) 2,491 10.7 -17.0°
Reaches altitude 10° 19:25:53 10° 209° (SSW) 1,612 9.9 -17.6°
Maximum altitude 19:28:31 20° 259° (W) 1,108 9.3 -18.2°
Drops below altitude 10° 19:31:08 10° 309° (NW) 1,610 9.6 -18.8°
Sets 19:33:33 0° 326° (NW) 2,486 10.3 -19.4°
